Regional Weather Roundup
Issued by NWS Cleveland, OH

Home | Current Version | Previous Version | Graphics & Text | Print | Product List | Glossary On
Versions: 1 2 3 4 5 6 7 8 9 10 11 12 13 14 15 16 17 18 19 20 21 22 23 24 25 26 27 28 29 30 31 32 33 34 35 36 37 38 39 40 41 42 43 44 45 46 47 48 49 50
000
ASUS41 KCLE 191402
RWRCLE
OHIO REGIONAL WEATHER ROUNDUP
NATIONAL WEATHER SERVICE CLEVELAND, OH
1000 AM EDT SAT APR 19 2014

NOTE: "FAIR" INDICATES FEW OR NO CLOUDS BELOW 12,000 FEET WITH NO
SIGNIFICANT WEATHER AND/OR OBSTRUCTIONS TO VISIBILITY.

OHZ001>008-015>018-024>027-034-035-043-044-191500-
   NORTHWEST OHIO

CITY           SKY/WX    TMP DP  RH WIND       PRES   REMARKS
DEFIANCE       SUNNY     43  32  65 E12       30.43S
FINDLAY        SUNNY     44  34  67 E14       30.41R
TOLEDO EXPRESS SUNNY     44  32  62 E12       30.44S
TOLEDO EXEC    SUNNY     44  32  62 E10       30.46R
LIMA           SUNNY     46  36  68 E15       30.39S
$$

OHZ009>014-019>023-028>033-038-089-191500-
   NORTHEAST OHIO

CITY           SKY/WX    TMP DP  RH WIND       PRES   REMARKS
CLE-HOPKINS    SUNNY     44  33  65 NE12      30.46R
CLE-LAKEFRONT  SUNNY     41  34  76 NE13      30.43R
CUY CO. ARPT   SUNNY     43  34  70 E9        30.42S
LORAIN-ELYRIA  SUNNY     45  32  60 E10       30.43R
ASHTABULA      SUNNY     42  30  62 VRB6      30.43S
AKRON-CANTON   MOSUNNY   47  31  54 NE10      30.40R
WOOSTER        SUNNY     46  35  65 NE10      30.41R
MANSFIELD      SUNNY     45  35  68 NE10      30.39R
YOUNGSTOWN     MOSUNNY   46  28  49 N9        30.40R
$$

OHZ042-051>053-060>062-070>072-077>081-191500-
  SOUTHWEST OHIO

CITY           SKY/WX    TMP DP  RH WIND       PRES   REMARKS
CINC-COVINGTON MOSUNNY   57  43  59 E12       30.31R
CINC-LUNKEN    SUNNY     56  44  64 NE12      30.33R
HAMILTON       SUNNY     57  44  62 E12       30.34S
DAYTON         SUNNY     51  41  68 E12       30.36R
WRIGHT-PAT AFB SUNNY     50  41  69 NE12      30.35R
DAYTON GENERAL SUNNY     53  41  63 E9        30.33R
WILMINGTON     SUNNY     52  40  63 E13G22    30.33R
$$

OHZ036-037-039>041-045>050-054>059-063>069-073>076-082>088-191500-
  CENTRAL AND SOUTHEAST OHIO

CITY           SKY/WX    TMP DP  RH WIND       PRES   REMARKS
COLUMBUS       SUNNY     55  39  54 NE9       30.35R
OSU AIRPORT    SUNNY     51  40  65 NE9       30.36R
BOLTON FIELD   SUNNY     52  41  66 NE13      30.35S
RICKENBACK AFB NOT AVBL
NEWARK         SUNNY     52  37  56 NE15G21   30.36R
MARION         SUNNY     46  36  68 NE15      30.39S
LANCASTER      SUNNY     55  41  59 E9G18     30.35R
ZANESVILLE     SUNNY     53  37  54 NE13      30.35R
NEW PHILLY     SUNNY     50  36  58 NE8       30.39R
$$



USA.gov is the U.S. government's official web portal to all federal, state and local government web resources and services.